Flag for Colombia Weather past 2 weeks in Manizales, Colombia

Now
70 °F

Passing clouds.


Feels Like: 70 °F
Forecast: 55 / 70 °F
Wind: 7 mph from East

Location: Pereira / Matecana

Current Time: Jan 31, 2015 at 11:09:25 PM

Latest Report: Jan 31, 2015 at 10:00 PM


Visibility: N/A

Pressure: 30.03 "Hg

Humidity: 83%

Dew point: 64 °F

Location of ManizalesLocation

Historic Weather in Manizales — Graph

°F

Manizales temperature yesterday

Maximum temperature yesterday: 82 °F (at 12:00 PM)
Minimum temperature yesterday: 66 °F (at 5:00 AM)
Average temperature yesterday: 73 °F

Past Weeks' High & Low Weather Summary

 TemperatureHumidityPressure
High84 °F (Jan 29, 1:00 PM)100% (Jan 19, 5:00 AM)30.17 "Hg (Jan 19, 5:00 AM)
Low37 °F (Jan 29, 9:00 AM)43% (Jan 29, 4:00 PM)29.85 "Hg (Jan 29, 4:00 PM)
Average71 °F78%30.03 "Hg
* Reported Jan 16 10:00 PM — Jan 31 10:00 PM, Manizales, Weather by CustomWeather, © 2014

Note: Actual official high and low records may vary slightly from our data, if they occured in-between our weather recording intervals... More about our weather records

Advertising

Manizales weather history for previous 24 hours

 ConditionsComfort  
Time TempWeatherWind HumidityBarometerVisibility
10:00 PM
Jan 31
70 °FPassing clouds.7 mph83%30.03 "HgN/A
9:00 PM70 °FPassing clouds.2 mph83%30.01 "HgN/A
8:00 PM72 °FPassing clouds.2 mph78%30.00 "HgN/A
7:00 PM73 °FPassing clouds.6 mph74%29.97 "HgN/A
6:00 PM77 °FPartly sunny.6 mph65%29.93 "HgN/A
5:00 PM79 °FPartly sunny.3 mph61%29.92 "HgN/A
4:00 PM81 °FPassing clouds.7 mph58%29.92 "HgN/A
3:00 PM82 °FScattered clouds.6 mph51%29.93 "HgN/A
2:00 PM81 °FScattered clouds.5 mph62%29.97 "HgN/A
1:00 PM79 °FScattered clouds.5 mph70%30.01 "HgN/A
12:00 PM75 °FScattered clouds.5 mph74%30.04 "HgN/A
11:00 AM73 °FScattered clouds.3 mph78%30.05 "HgN/A
10:00 AM73 °FScattered clouds.3 mph74%30.07 "HgN/A
9:00 AM72 °FScattered clouds.3 mph78%30.08 "HgN/A
8:00 AM68 °FScattered clouds.3 mph88%30.07 "HgN/A
7:00 AM66 °FScattered clouds.5 mph94%30.04 "HgN/A
6:00 AM66 °FPassing clouds.3 mph94%30.02 "HgN/A
5:00 AM66 °FFog.5 mph94%30.00 "Hg5 mi
1:00 AM68 °FPassing clouds.6 mph88%30.04 "Hg5 mi
12:00 AM66 °FPassing clouds.3 mph94%30.05 "HgN/A
11:00 PM
Jan 30
68 °FPassing clouds.2 mph88%30.04 "HgN/A
Weather by CustomWeather, © 2014

See weather overviewHow to use our weather pages